TimeAKST,TemperatureF,Dew PointF,Humidity,Sea Level PressureIn,VisibilityMPH,Wind Direction,Wind SpeedMPH,Gust SpeedMPH,PrecipitationIn,Events,Conditions,WindDirDegrees,DateUTC
12:16 AM,28.4,24.8,86,30.59,10.0,NNW,4.6,-,N/A,,Overcast,340,2011-12-07 09:16:00
12:36 AM,28.4,24.8,86,30.58,10.0,NNW,3.5,-,N/A,,Overcast,340,2011-12-07 09:36:00
12:56 AM,28.4,24.8,86,30.58,10.0,NNW,3.5,-,N/A,,Overcast,330,2011-12-07 09:56:00
1:16 AM,26.6,23.0,86,30.57,10.0,Calm,Calm,-,N/A,,Mostly Cloudy,0,2011-12-07 10:16:00
1:36 AM,28.4,24.8,86,30.57,10.0,Calm,Calm,-,N/A,,Clear,0,2011-12-07 10:36:00
1:56 AM,26.6,23.0,86,30.58,10.0,NNW,3.5,-,N/A,,Mostly Cloudy,340,2011-12-07 10:56:00
2:16 AM,24.8,21.2,86,30.58,10.0,North,3.5,-,N/A,,Overcast,350,2011-12-07 11:16:00
2:36 AM,26.6,23.0,86,30.58,10.0,Calm,Calm,-,N/A,,Overcast,0,2011-12-07 11:36:00
2:56 AM,26.6,23.0,86,30.58,10.0,NNW,4.6,-,N/A,,Overcast,330,2011-12-07 11:56:00
3:16 AM,26.6,23.0,86,30.58,10.0,Calm,Calm,-,N/A,,Overcast,0,2011-12-07 12:16:00
3:36 AM,26.6,23.0,86,30.58,10.0,Calm,Calm,-,N/A,,Overcast,0,2011-12-07 12:36:00
3:56 AM,28.4,24.8,86,30.58,4.0,Calm,Calm,-,N/A,,Overcast,0,2011-12-07 12:56:00
4:16 AM,26.6,24.8,93,30.58,10.0,Calm,Calm,-,N/A,,Mostly Cloudy,0,2011-12-07 13:16:00
4:36 AM,28.4,24.8,86,30.58,10.0,Calm,Calm,-,N/A,,Overcast,0,2011-12-07 13:36:00
4:56 AM,28.4,24.8,86,30.59,10.0,NNW,3.5,-,N/A,,Overcast,330,2011-12-07 13:56:00
5:16 AM,26.6,24.8,93,30.58,10.0,Calm,Calm,-,N/A,,Overcast,0,2011-12-07 14:16:00
5:36 AM,26.6,23.0,86,30.57,10.0,Calm,Calm,-,N/A,,Mostly Cloudy,0,2011-12-07 14:36:00
5:56 AM,26.6,24.8,93,30.57,10.0,Calm,Calm,-,N/A,,Mostly Cloudy,0,2011-12-07 14:56:00
6:16 AM,26.6,21.2,80,30.57,10.0,Calm,Calm,-,N/A,,Mostly Cloudy,0,2011-12-07 15:16:00
6:36 AM,24.8,21.2,86,30.57,10.0,Calm,Calm,-,N/A,,Scattered Clouds,0,2011-12-07 15:36:00
6:56 AM,26.6,23.0,86,30.56,10.0,NNW,3.5,-,N/A,,Overcast,340,2011-12-07 15:56:00
7:16 AM,24.8,23.0,93,30.55,10.0,Calm,Calm,-,N/A,,Overcast,0,2011-12-07 16:16:00
7:36 AM,26.6,23.0,86,30.55,10.0,Calm,Calm,-,N/A,,Overcast,0,2011-12-07 16:36:00
7:56 AM,26.6,23.0,86,30.55,10.0,Calm,Calm,-,N/A,,Mostly Cloudy,0,2011-12-07 16:56:00
8:16 AM,26.6,24.8,93,30.55,10.0,Calm,Calm,-,N/A,,Mostly Cloudy,0,2011-12-07 17:16:00
8:36 AM,26.6,23.0,86,30.56,10.0,Calm,Calm,-,N/A,,Overcast,0,2011-12-07 17:36:00
8:56 AM,26.6,24.8,93,30.56,10.0,Calm,Calm,-,N/A,,Overcast,0,2011-12-07 17:56:00
9:16 AM,26.6,24.8,93,30.56,10.0,Calm,Calm,-,N/A,,Overcast,0,2011-12-07 18:16:00
9:36 AM,26.6,24.8,93,30.55,10.0,Calm,Calm,-,N/A,,Overcast,0,2011-12-07 18:36:00
9:56 AM,26.6,24.8,93,30.55,10.0,Calm,Calm,-,N/A,,Overcast,0,2011-12-07 18:56:00
10:16 AM,28.4,24.8,86,30.55,10.0,Calm,Calm,-,N/A,,Overcast,0,2011-12-07 19:16:00
10:36 AM,28.4,24.8,86,30.55,10.0,Calm,Calm,-,N/A,,Overcast,0,2011-12-07 19:36:00
10:56 AM,28.4,24.8,86,30.55,10.0,Calm,Calm,-,N/A,,Overcast,0,2011-12-07 19:56:00
11:16 AM,28.4,26.6,93,30.55,10.0,Calm,Calm,-,N/A,,Mostly Cloudy,0,2011-12-07 20:16:00
11:36 AM,28.4,26.6,93,30.55,10.0,Calm,Calm,-,N/A,,Mostly Cloudy,0,2011-12-07 20:36:00
11:56 AM,28.4,26.6,93,30.54,10.0,North,3.5,-,N/A,,Overcast,360,2011-12-07 20:56:00
12:16 PM,30.2,26.6,86,30.54,10.0,Calm,Calm,-,N/A,,Overcast,0,2011-12-07 21:16:00
12:36 PM,30.2,26.6,86,30.54,10.0,Calm,Calm,-,N/A,,Overcast,0,2011-12-07 21:36:00
12:56 PM,30.2,26.6,86,30.53,10.0,NNW,3.5,-,N/A,,Overcast,340,2011-12-07 21:56:00
1:16 PM,30.2,26.6,86,30.53,10.0,Calm,Calm,-,N/A,,Overcast,0,2011-12-07 22:16:00
1:36 PM,30.2,26.6,86,30.52,10.0,Calm,Calm,-,N/A,,Overcast,0,2011-12-07 22:36:00
1:56 PM,30.2,26.6,86,30.51,10.0,Calm,Calm,-,N/A,,Overcast,0,2011-12-07 22:56:00
2:16 PM,30.2,26.6,86,30.50,10.0,Calm,Calm,-,N/A,,Overcast,0,2011-12-07 23:16:00
2:36 PM,33.8,26.6,75,30.50,10.0,SSE,5.8,-,N/A,,Overcast,150,2011-12-07 23:36:00
2:56 PM,33.8,26.6,75,30.50,10.0,SSE,3.5,-,N/A,,Overcast,160,2011-12-07 23:56:00
3:16 PM,33.8,26.6,75,30.49,10.0,SE,4.6,-,N/A,,Overcast,130,2011-12-08 00:16:00
3:36 PM,33.8,26.6,75,30.49,10.0,SE,6.9,-,N/A,,Overcast,140,2011-12-08 00:36:00
3:56 PM,33.8,26.6,75,30.49,5.0,Calm,Calm,-,N/A,,Overcast,0,2011-12-08 00:56:00
4:16 PM,32.0,26.6,80,30.48,10.0,North,3.5,-,N/A,,Overcast,350,2011-12-08 01:16:00
4:36 PM,30.2,28.4,93,30.47,9.0,NNE,5.8,-,N/A,,Overcast,20,2011-12-08 01:36:00
4:56 PM,30.2,28.4,93,30.47,8.0,North,4.6,-,N/A,,Overcast,360,2011-12-08 01:56:00
5:16 PM,32.0,28.4,87,30.46,10.0,NNW,4.6,-,N/A,,Overcast,340,2011-12-08 02:16:00
5:36 PM,30.2,28.4,93,30.46,10.0,NNW,5.8,-,N/A,,Overcast,330,2011-12-08 02:36:00
5:56 PM,30.2,28.4,93,30.45,10.0,NNW,5.8,-,N/A,,Overcast,330,2011-12-08 02:56:00
6:16 PM,30.2,28.4,93,30.43,10.0,NNW,5.8,-,N/A,,Overcast,340,2011-12-08 03:16:00
6:36 PM,30.2,28.4,93,30.44,10.0,NNW,5.8,-,N/A,,Overcast,340,2011-12-08 03:36:00
6:56 PM,30.2,28.4,93,30.43,5.0,Calm,Calm,-,N/A,,Overcast,0,2011-12-08 03:56:00
7:16 PM,30.2,28.4,93,30.43,7.0,NNW,4.6,-,N/A,,Overcast,340,2011-12-08 04:16:00
7:36 PM,30.2,28.4,93,30.43,8.0,North,3.5,-,N/A,,Overcast,350,2011-12-08 04:36:00
7:56 PM,30.2,28.4,93,30.43,2.0,North,3.5,-,N/A,,Overcast,350,2011-12-08 04:56:00
8:16 PM,30.2,28.4,93,30.42,2.5,Calm,Calm,-,N/A,,Overcast,0,2011-12-08 05:16:00
8:36 PM,30.2,28.4,93,30.42,2.5,NNW,3.5,-,N/A,,Overcast,340,2011-12-08 05:36:00
8:56 PM,30.2,28.4,93,30.40,2.0,Calm,Calm,-,N/A,,Overcast,0,2011-12-08 05:56:00
9:16 PM,30.2,28.4,93,30.41,1.8,Calm,Calm,-,N/A,,Overcast,0,2011-12-08 06:16:00
9:36 PM,30.2,28.4,93,30.40,1.8,Calm,Calm,-,N/A,,Overcast,0,2011-12-08 06:36:00
9:56 PM,30.2,28.4,93,30.39,1.2,Calm,Calm,-,N/A,,Overcast,0,2011-12-08 06:56:00
10:16 PM,32.0,30.2,93,30.38,1.5,SSE,4.6,-,N/A,,Overcast,150,2011-12-08 07:16:00
10:36 PM,33.8,30.2,87,30.37,1.5,SE,5.8,-,N/A,,Overcast,140,2011-12-08 07:36:00
10:56 PM,33.8,30.2,87,30.37,1.5,SSE,5.8,-,N/A,,Overcast,150,2011-12-08 07:56:00
11:16 PM,33.8,30.2,87,30.36,2.0,SSE,5.8,-,N/A,,Overcast,150,2011-12-08 08:16:00
11:36 PM,33.8,30.2,87,30.35,3.0,SE,9.2,-,N/A,,Overcast,140,2011-12-08 08:36:00
11:56 PM,33.8,30.2,87,30.34,3.0,SE,10.4,-,N/A,,Overcast,140,2011-12-08 08:56:00